EW1175 Weather Reports


time (UTC)temp
C
wind
direction
speed
KPH
gust
KPH
rain 1hr
cm
rain 24hr
cm
rain mn
cm
humidity
%
barometer
mb
20260506061543 12 179 0.0 1.6 0.00 0.00 0.00 85 1017.6
20260506044542 12 108 0.0 0.0 0.00 0.00 0.00 84 1017.0
20260506043035 12 109 0.0 0.0 0.00 0.00 0.00 84 1016.9
20260506041550 13 109 0.0 0.0 0.00 0.00 0.00 82 1016.8
20260506040034 13 109 0.0 0.0 0.00 0.00 0.00 81 1016.6
20260506034547 13 109 0.0 0.0 0.00 0.00 0.00 79 1016.4
20260506033033 14 109 0.0 0.0 0.00 0.00 0.00 77 1016.3
20260506031532 14 108 0.0 0.0 0.00 0.00 0.00 76 1016.1
20260506030037 15 109 0.0 0.0 0.00 0.00 0.00 74 1016.0
20260506024533 15 109 0.0 0.0 0.00 0.00 0.00 74 1016.0
20260506023030 16 109 0.0 0.0 0.00 0.00 0.00 73 1015.9
20260506021530 16 109 0.0 0.0 0.00 0.00 0.00 71 1015.9
20260506020029 16 106 0.0 1.6 0.00 0.00 0.00 71 1015.9
20260506014528 16 148 0.0 3.2 0.00 0.00 0.00 69 1016.0
20260506013038 17 130 0.0 1.6 0.00 0.00 0.00 69 1015.9
20260506011528 17 125 0.0 1.6 0.00 0.00 0.00 70 1015.9
20260506010032 17 145 0.0 1.6 0.00 0.00 0.00 69 1016.0
20260506004526 17 130 0.0 1.6 0.00 0.00 0.00 68 1016.0
20260506003027 17 5 0.0 3.2 0.00 0.00 0.00 68 1016.0
20260506001524 17 123 0.0 1.6 0.00 0.00 0.00 68 1015.9
20260506000023 17 114 0.0 1.6 0.00 0.00 0.00 67 1016.0
20260505234523 17 135 0.0 3.2 0.00 0.00 0.00 67 1016.1
20260505233027 18 122 0.0 3.2 0.00 0.00 0.00 65 1016.3
20260505231524 18 103 0.0 8.0 0.00 0.00 0.00 65 1016.4
20260505230021 18 122 0.0 4.8 0.00 0.00 0.00 64 1016.5
20260505224521 19 117 0.0 1.6 0.00 0.00 0.00 62 1016.7
20260505223020 20 113 0.0 3.2 0.00 0.00 0.00 61 1016.7
20260505221520 20 89 0.0 3.2 0.00 0.00 0.00 61 1016.7
20260505220030 20 21 1.6 4.8 0.00 0.00 0.00 60 1016.9
20260505214522 20 111 0.0 8.0 0.00 0.00 0.00 60 1016.9
20260505213018 19 120 0.0 3.2 0.00 0.00 0.00 63 1017.0
20260505211519 21 222 0.0 3.2 0.00 0.00 0.00 58 1017.0
20260505210015 20 129 0.0 1.6 0.00 0.00 0.00 63 1017.0
20260505204514 19 113 0.0 4.8 0.00 0.00 0.00 61 1017.2
20260505203013 20 117 0.0 3.2 0.00 0.00 0.00 59 1017.2
20260505201510 19 82 1.6 8.0 0.00 0.00 0.00 64 1017.2
20260505200015 19 61 0.0 4.8 0.00 0.00 0.00 65 1017.3
20260505194507 18 91 0.0 8.0 0.00 0.00 0.00 66 1017.3
20260505193006 17 127 0.0 3.2 0.00 0.00 0.00 68 1017.4
20260505191515 17 108 0.0 3.2 0.00 0.00 0.00 71 1017.4
20260505190008 17 131 0.0 1.6 0.00 0.00 0.00 73 1017.4
20260505184505 16 141 0.0 4.8 0.00 0.00 0.00 74 1017.5
20260505183002 16 117 0.0 1.6 0.00 0.00 0.00 74 1017.3
20260505181502 17 101 0.0 4.8 0.00 0.00 0.00 70 1017.2
20260505180001 16 117 0.0 1.6 0.00 0.00 0.00 72 1017.1
20260505174501 17 131 0.0 4.8 0.00 0.00 0.00 69 1017.2
20260505173100 18 101 0.0 3.2 0.00 0.00 0.00 65 1017.2
20260505171559 18 118 0.0 1.6 0.00 0.00 0.00 65 1017.2
20260505170058 19 193 0.0 1.6 0.00 0.00 0.00 66 1017.2
20260505164555 17 142 0.0 1.6 0.00 0.00 0.00 72 1017.2
20260505163054 17 94 0.0 1.6 0.00 0.00 0.00 70 1017.2
20260505161554 17 77 0.0 3.2 0.00 0.00 0.00 71 1017.1
20260505153049 17 90 0.0 4.8 0.00 0.00 0.00 68 1017.0
20260505151548 17 165 0.0 1.6 0.00 0.00 0.00 69 1016.9
20260505124516 -17 0.0 0.0 0.00 0.00 0.00 1015.3
20260505123007 -17 0.0 0.0 0.00 0.00 0.00 1015.1
20260505121509 -17 0.0 0.0 0.00 0.00 0.00 1015.0
20260505120113 -17 0.0 0.0 0.00 0.00 0.00 1014.9
20260505114555 -17 0.0 0.0 0.00 0.00 0.00 1014.7
20260505113058 -17 0.0 0.0 0.00 0.00 0.00 1014.5
20260505111546 -17 0.0 0.0 0.00 0.00 0.00 1014.4
20260505101535 12 188 0.0 1.6 0.00 0.00 0.00 77 1013.9
20260505100033 12 162 0.0 1.6 0.00 0.00 0.00 78 1013.6
20260505094525 12 137 0.0 1.6 0.00 0.00 0.00 80 1013.5
20260505093022 12 130 0.0 0.0 0.00 0.00 0.00 81 1013.3
20260505091518 13 130 0.0 0.0 0.00 0.00 0.00 79 1013.1
20260505090033 13 130 0.0 0.0 0.00 0.00 0.00 78 1013.0
20260505084511 13 129 0.0 0.0 0.00 0.00 0.00 76 1012.7
20260505083008 14 130 0.0 0.0 0.00 0.00 0.00 74 1012.6
20260505081507 14 129 0.0 0.0 0.00 0.00 0.00 72 1012.5
20260505080007 15 130 0.0 0.0 0.00 0.00 0.00 72 1012.4
20260505074502 15 130 0.0 0.0 0.00 0.00 0.00 72 1012.3
20260505073103 15 130 0.0 0.0 0.00 0.00 0.00 70 1012.1
20260505071553 16 130 0.0 0.0 0.00 0.00 0.00 69 1011.9